Regional Weather Roundup
Issued by NWS State College, PA

Home | Current Version | Previous Version | Text Only | Print | Product List | Glossary Off
Versions: 1 2 3 4 5 6 7 8 9 10 11 12 13 14 15 16 17 18 19 20 21 22 23 24 25 26 27 28 29 30 31 32 33 34 35 36 37 38 39 40 41 42 43 44 45 46 47 48 49 50

000
ASUS41 KCTP 311210
RWRCTP

REGIONAL WEATHER ROUNDUP
NATIONAL WEATHER SERVICE STATE COLLEGE PA
800 AM EDT WED AUG 31 2016

Note: "fair" indicates few or no clouds below 12,000 feet with no
significant weather and/or obstructions to visibility.

* = STATION THAT DOES NOT REPORT PRECIPITATION /E.G. RAIN...SNOW...ETC/
    THUNDER OR FOG.

PAZ002>004-007>009-013>016-020>023-029>032-311300-
WESTERN PENNSYLVANIA

CITY           SKY/WX    TMP DP  RH WIND       PRES   REMARKS
ERIE           LGT RAIN  72  58  61 S8        29.98S
MEADVILLE      LGT RAIN  66  56  70 SW3       30.03S
FRANKLIN*        N/A     64  55  72 S7        30.04S
NEW CASTLE     CLOUDY    64  62  93 CALM      30.03S
BEAVER COUNTY  CLOUDY    66  59  77 SW5       30.03F
BUTLER*        NOT AVBL
PITTSBURGH INT CLOUDY    64  58  80 S3        30.03S
PITTSBURGH     MOSUNNY   65  59  81 S3        30.03S
INDIANA*       MOSUNNY   63  61  94 CALM      30.07S
LATROBE        SUNNY     59  59 100 CALM      30.05R
WASHINGTON CO* CLOUDY    59  55  88 CALM      30.05R
$$

PAZ004>006-010>012-017>019-024>028-033>037-041-042-045-046-049>053-311300-
CENTRAL PENNSYLVANIA

CITY           SKY/WX    TMP DP  RH WIND       PRES   REMARKS
BRADFORD       CLOUDY    65  58  78 CALM      30.05F
DUBOIS         CLOUDY    64  59  83 CALM      30.04F
CLEARFIELD     NOT AVBL
JOHNSTOWN      CLOUDY    66  60  81 CALM      30.07F
ALTOONA        MOSUNNY   62  61  96 CALM      30.05F FOG
STATE COLLEGE  SUNNY     61  59  94 CALM      30.03F
WILLIAMSPORT   PTSUNNY   66  61  84 N3        30.01S
SELINSGROVE    MOSUNNY   63  63 100 CALM      30.02F
FT INDIANTOWN  MOSUNNY   65  62  93 CALM      30.02F
CAPITAL CITY   CLOUDY    70  63  78 CALM      30.02F
HARRISBURG     CLOUDY    71  67  87 E5        30.01F
YORK           SUNNY     66  64  93 CALM      30.02F
$$

PAZ038>040-043-044-047-048-054-055-060>062-067>071-311300-
EASTERN PENNSYLVANIA

CITY           SKY/WX    TMP DP  RH WIND       PRES   REMARKS
SCRANTON       CLOUDY    66  60  81 CALM      30.03S
MOUNT POCONO   CLOUDY    64  58  80 W5        30.07S
ALLENTOWN      MOSUNNY   67  61  81 CALM      30.02F
QUAKERTOWN*    CLOUDY    66  66 100 CALM      30.04S VSB<1/4
READING        SUNNY     66  62  87 CALM      30.02S
LANCASTER      SUNNY     65  64  97 CALM      30.03S
COATESVILLE    SUNNY     70  64  83 W3        30.05S
POTTSTOWN      SUNNY     66  63  90 CALM      30.04F
BLUE BELL      CLOUDY    68  68 100 CALM      30.01F
DOYLESTOWN     CLOUDY    70  70 100 W3        30.02F FOG
WILLOW GROVE   NOT AVBL
NORTH PHILA    SUNNY     75  71  87 NW5       30.03F
PHILADELPHIA   MOSUNNY   74  70  87 S5        30.01F
$$




USA.gov is the U.S. government's official web portal to all federal, state and local government web resources and services.